Year,Month,Day,Hour,Minute,Value (Times are PST for temperature in C)
2017,10,23,00,00,3.50
2017,10,23,00,01,3.50
2017,10,23,00,02,3.50
2017,10,23,00,03,3.50
2017,10,23,00,04,3.50
2017,10,23,00,05,3.40
2017,10,23,00,06,3.50
2017,10,23,00,07,3.50
2017,10,23,00,08,3.50
2017,10,23,00,09,3.60
2017,10,23,00,10,3.60
2017,10,23,00,11,3.60
2017,10,23,00,12,3.70
2017,10,23,00,13,3.70
2017,10,23,00,14,3.70
2017,10,23,00,15,3.70
2017,10,23,00,16,3.70
2017,10,23,00,17,3.70
2017,10,23,00,18,3.70
2017,10,23,00,19,3.70
2017,10,23,00,20,3.70
2017,10,23,00,21,3.70
2017,10,23,00,22,3.80
2017,10,23,00,23,3.70
2017,10,23,00,24,3.70
2017,10,23,00,25,3.60
2017,10,23,00,26,3.60
2017,10,23,00,27,3.50
2017,10,23,00,28,3.40
2017,10,23,00,29,3.40
2017,10,23,00,30,3.30
2017,10,23,00,31,3.30
2017,10,23,00,32,3.30
2017,10,23,00,33,3.20
2017,10,23,00,34,3.20
2017,10,23,00,35,3.10
2017,10,23,00,36,3.00
2017,10,23,00,37,3.00
2017,10,23,00,38,2.90
2017,10,23,00,39,2.90
2017,10,23,00,40,2.90
2017,10,23,00,41,2.90
2017,10,23,00,42,2.90
2017,10,23,00,43,2.80
2017,10,23,00,44,2.80
2017,10,23,00,45,2.80
2017,10,23,00,46,2.80
2017,10,23,00,47,2.80
2017,10,23,00,48,2.80
2017,10,23,00,49,2.80
2017,10,23,00,50,2.90
2017,10,23,00,51,2.90
2017,10,23,00,52,2.90
2017,10,23,00,53,2.90
2017,10,23,00,54,2.90
2017,10,23,00,55,3.00
2017,10,23,00,56,3.00
2017,10,23,00,57,3.00
2017,10,23,00,58,3.00
2017,10,23,00,59,3.00
2017,10,23,01,00,3.00
2017,10,23,01,01,2.90
2017,10,23,01,02,2.90
2017,10,23,01,03,2.90
2017,10,23,01,04,2.90
2017,10,23,01,05,2.90
2017,10,23,01,06,2.90
2017,10,23,01,07,2.90
2017,10,23,01,08,2.90
2017,10,23,01,09,2.90
2017,10,23,01,10,2.90
2017,10,23,01,11,2.90
2017,10,23,01,12,2.90
2017,10,23,01,13,3.00
2017,10,23,01,14,3.00
2017,10,23,01,15,3.00
2017,10,23,01,16,3.10
2017,10,23,01,17,3.10
2017,10,23,01,18,3.20
2017,10,23,01,19,3.20
2017,10,23,01,20,3.20
2017,10,23,01,21,3.30
2017,10,23,01,22,3.30
2017,10,23,01,23,3.30
2017,10,23,01,24,3.30
2017,10,23,01,25,3.30
2017,10,23,01,26,3.30
2017,10,23,01,27,3.40
2017,10,23,01,28,3.30
2017,10,23,01,29,3.30
2017,10,23,01,30,3.30
2017,10,23,01,31,3.30
2017,10,23,01,32,3.30
2017,10,23,01,33,3.30
2017,10,23,01,34,3.30
2017,10,23,01,35,3.30
2017,10,23,01,36,3.30
2017,10,23,01,37,3.30
2017,10,23,01,38,3.30
2017,10,23,01,39,3.20
2017,10,23,01,40,3.20
2017,10,23,01,41,3.20
2017,10,23,01,42,3.20
2017,10,23,01,43,3.20
2017,10,23,01,44,3.20
2017,10,23,01,45,3.20
2017,10,23,01,46,3.20
2017,10,23,01,47,3.20
2017,10,23,01,48,3.20
2017,10,23,01,49,3.20
2017,10,23,01,50,3.20
2017,10,23,01,51,3.20
2017,10,23,01,52,3.20
2017,10,23,01,53,3.20
2017,10,23,01,54,3.20
2017,10,23,01,55,3.30
2017,10,23,01,56,3.30
2017,10,23,01,57,3.30
2017,10,23,01,58,3.30
2017,10,23,01,59,3.30
2017,10,23,02,00,3.30
2017,10,23,02,01,3.30
2017,10,23,02,02,3.30
2017,10,23,02,03,3.30
2017,10,23,02,04,3.30
2017,10,23,02,05,3.20
2017,10,23,02,06,3.20
2017,10,23,02,07,3.10
2017,10,23,02,08,3.00
2017,10,23,02,09,3.00
2017,10,23,02,10,2.90
2017,10,23,02,11,2.90
2017,10,23,02,12,2.90
2017,10,23,02,13,2.90
2017,10,23,02,14,2.90
2017,10,23,02,15,2.90
2017,10,23,02,16,2.90
2017,10,23,02,17,2.80
2017,10,23,02,18,2.80
2017,10,23,02,19,2.80
2017,10,23,02,20,2.80
2017,10,23,02,21,2.80
2017,10,23,02,22,2.70
2017,10,23,02,23,2.80
2017,10,23,02,24,2.80
2017,10,23,02,25,2.80
2017,10,23,02,26,2.80
2017,10,23,02,27,2.80
2017,10,23,02,28,2.80
2017,10,23,02,29,2.80
2017,10,23,02,30,2.80
2017,10,23,02,31,2.80
2017,10,23,02,32,2.90
2017,10,23,02,33,2.90
2017,10,23,02,34,2.90
2017,10,23,02,35,2.90
2017,10,23,02,36,3.00
2017,10,23,02,37,3.00
2017,10,23,02,38,3.00
2017,10,23,02,39,3.10
2017,10,23,02,40,3.10
2017,10,23,02,41,3.10
2017,10,23,02,42,3.20
2017,10,23,02,43,3.20
2017,10,23,02,44,3.20
2017,10,23,02,45,3.20
2017,10,23,02,46,3.20
2017,10,23,02,47,3.20
2017,10,23,02,48,3.20
2017,10,23,02,49,3.20
2017,10,23,02,50,3.20
2017,10,23,02,51,3.10
2017,10,23,02,52,3.10
2017,10,23,02,53,3.10
2017,10,23,02,54,3.10
2017,10,23,02,55,3.10
2017,10,23,02,56,3.10
2017,10,23,02,57,3.10
2017,10,23,02,58,3.10
2017,10,23,02,59,3.10
2017,10,23,03,00,3.10
2017,10,23,03,01,3.10
2017,10,23,03,02,3.10
2017,10,23,03,03,3.10
2017,10,23,03,04,3.10
2017,10,23,03,05,3.20
2017,10,23,03,06,3.20
2017,10,23,03,07,3.20
2017,10,23,03,08,3.20
2017,10,23,03,09,3.20
2017,10,23,03,10,3.20
2017,10,23,03,11,3.20
2017,10,23,03,12,3.20
2017,10,23,03,13,3.20
2017,10,23,03,14,3.20
2017,10,23,03,15,3.20
2017,10,23,03,16,3.20
2017,10,23,03,17,3.20
2017,10,23,03,18,3.20
2017,10,23,03,19,3.20
2017,10,23,03,20,3.20
2017,10,23,03,21,3.20
2017,10,23,03,22,3.20
2017,10,23,03,23,3.20
2017,10,23,03,24,3.20
2017,10,23,03,25,3.20
2017,10,23,03,26,3.20
2017,10,23,03,27,3.20
2017,10,23,03,28,3.20
2017,10,23,03,29,3.20
2017,10,23,03,30,3.20
2017,10,23,03,31,3.20
2017,10,23,03,32,3.20
2017,10,23,03,33,3.20
2017,10,23,03,34,3.20
2017,10,23,03,35,3.20
2017,10,23,03,36,3.20
2017,10,23,03,37,3.20
2017,10,23,03,38,3.20
2017,10,23,03,39,3.20
2017,10,23,03,40,3.20
2017,10,23,03,41,3.30
2017,10,23,03,42,3.30
2017,10,23,03,43,3.30
2017,10,23,03,44,3.30
2017,10,23,03,45,3.30
2017,10,23,03,46,3.30
2017,10,23,03,47,3.30
2017,10,23,03,48,3.30
2017,10,23,03,49,3.30
2017,10,23,03,50,3.30
2017,10,23,03,51,3.30
2017,10,23,03,52,3.30
2017,10,23,03,53,3.30
2017,10,23,03,54,3.30
2017,10,23,03,55,3.30
2017,10,23,03,56,3.30
2017,10,23,03,57,3.30
2017,10,23,03,58,3.30
2017,10,23,03,59,3.30
2017,10,23,04,00,3.30
2017,10,23,04,01,3.30
2017,10,23,04,02,3.30
2017,10,23,04,03,3.30
2017,10,23,04,04,3.30
2017,10,23,04,05,3.30
2017,10,23,04,06,3.30
2017,10,23,04,07,3.30
2017,10,23,04,08,3.30
2017,10,23,04,09,3.30
2017,10,23,04,10,3.30
2017,10,23,04,11,3.30
2017,10,23,04,12,3.30
2017,10,23,04,13,3.40
2017,10,23,04,14,3.40
2017,10,23,04,15,3.40
2017,10,23,04,16,3.40
2017,10,23,04,17,3.40
2017,10,23,04,18,3.50
2017,10,23,04,19,3.50
2017,10,23,04,20,3.50
2017,10,23,04,21,3.50
2017,10,23,04,22,3.60
2017,10,23,04,23,3.60
2017,10,23,04,24,3.60
2017,10,23,04,25,3.60
2017,10,23,04,26,3.60
2017,10,23,04,27,3.60
2017,10,23,04,28,3.60
2017,10,23,04,29,3.60
2017,10,23,04,30,3.60
2017,10,23,04,31,3.60
2017,10,23,04,32,3.60
2017,10,23,04,33,3.60
2017,10,23,04,34,3.60
2017,10,23,04,35,3.60
2017,10,23,04,36,3.60
2017,10,23,04,37,3.70
2017,10,23,04,38,3.70
2017,10,23,04,39,3.70
2017,10,23,04,40,3.70
2017,10,23,04,41,3.70
2017,10,23,04,42,3.70
2017,10,23,04,43,3.80
2017,10,23,04,44,3.80
2017,10,23,04,45,3.80
2017,10,23,04,46,3.80
2017,10,23,04,47,3.80
2017,10,23,04,48,3.80
2017,10,23,04,49,3.90
2017,10,23,04,50,3.90
2017,10,23,04,51,3.90
2017,10,23,04,52,3.90
2017,10,23,04,53,3.90
2017,10,23,04,54,3.90
2017,10,23,04,55,3.90
2017,10,23,04,56,3.90
2017,10,23,04,57,3.90
2017,10,23,04,58,3.90
2017,10,23,04,59,4.00
2017,10,23,05,00,4.00
2017,10,23,05,01,4.00
2017,10,23,05,02,4.00
2017,10,23,05,03,4.00
2017,10,23,05,04,4.10
2017,10,23,05,05,4.10
2017,10,23,05,06,4.10
2017,10,23,05,07,4.10
2017,10,23,05,08,4.10
2017,10,23,05,09,4.10
2017,10,23,05,10,4.10
2017,10,23,05,11,4.10
2017,10,23,05,12,4.10
2017,10,23,05,13,4.00
2017,10,23,05,14,4.00
2017,10,23,05,15,4.00
2017,10,23,05,16,4.00
2017,10,23,05,17,4.00
2017,10,23,05,18,3.90
2017,10,23,05,19,3.90
2017,10,23,05,20,3.90
2017,10,23,05,21,3.90
2017,10,23,05,22,3.90
2017,10,23,05,23,3.90
2017,10,23,05,24,3.90
2017,10,23,05,25,3.90
2017,10,23,05,26,3.90
2017,10,23,05,27,4.00
2017,10,23,05,28,4.00
2017,10,23,05,29,4.00
2017,10,23,05,30,4.00
2017,10,23,05,31,4.00
2017,10,23,05,32,4.00
2017,10,23,05,33,4.00
2017,10,23,05,34,4.00
2017,10,23,05,35,4.00
2017,10,23,05,36,4.00
2017,10,23,05,37,4.10
2017,10,23,05,38,4.10
2017,10,23,05,39,4.10
2017,10,23,05,40,4.10
2017,10,23,05,41,4.10
2017,10,23,05,42,4.10
2017,10,23,05,43,4.10
2017,10,23,05,44,4.10
2017,10,23,05,45,4.10
2017,10,23,05,46,4.10
2017,10,23,05,47,4.10
2017,10,23,05,48,4.10
2017,10,23,05,49,4.20
2017,10,23,05,50,4.20
2017,10,23,05,51,4.20
2017,10,23,05,52,4.20
2017,10,23,05,53,4.20
2017,10,23,05,54,4.20
2017,10,23,05,55,4.20
2017,10,23,05,56,4.20
2017,10,23,05,57,4.20
2017,10,23,05,58,4.20
2017,10,23,05,59,4.30
2017,10,23,06,00,4.30
2017,10,23,06,01,4.30
2017,10,23,06,02,4.30
2017,10,23,06,03,4.30
2017,10,23,06,04,4.30
2017,10,23,06,05,4.40
2017,10,23,06,06,4.40
2017,10,23,06,07,4.40
2017,10,23,06,08,4.40
2017,10,23,06,09,4.40
2017,10,23,06,10,4.40
2017,10,23,06,11,4.40
2017,10,23,06,12,4.40
2017,10,23,06,13,4.50
2017,10,23,06,14,4.50
2017,10,23,06,15,4.50
2017,10,23,06,16,4.50
2017,10,23,06,17,4.60
2017,10,23,06,18,4.60
2017,10,23,06,19,4.60
2017,10,23,06,20,4.60
2017,10,23,06,21,4.70
2017,10,23,06,22,4.70
2017,10,23,06,23,4.70
2017,10,23,06,24,4.70
2017,10,23,06,25,4.70
2017,10,23,06,26,4.70
2017,10,23,06,27,4.70
2017,10,23,06,28,4.70
2017,10,23,06,29,4.70
2017,10,23,06,30,4.70
2017,10,23,06,31,4.70
2017,10,23,06,32,4.70
2017,10,23,06,33,4.70
2017,10,23,06,34,4.60
2017,10,23,06,35,4.60
2017,10,23,06,36,4.60
2017,10,23,06,37,4.60
2017,10,23,06,38,4.60
2017,10,23,06,39,4.60
2017,10,23,06,40,4.60
2017,10,23,06,41,4.60
2017,10,23,06,42,4.60
2017,10,23,06,43,4.60
2017,10,23,06,44,4.70
2017,10,23,06,45,4.70
2017,10,23,06,46,4.70
2017,10,23,06,47,4.70
2017,10,23,06,48,4.70
2017,10,23,06,49,4.70
2017,10,23,06,50,4.70
2017,10,23,06,51,4.80
2017,10,23,06,52,4.80
2017,10,23,06,53,4.80
2017,10,23,06,54,4.90
2017,10,23,06,55,5.00
2017,10,23,06,56,5.00
2017,10,23,06,57,5.10
2017,10,23,06,58,5.10
2017,10,23,06,59,5.10
2017,10,23,07,00,5.10
2017,10,23,07,01,5.10
2017,10,23,07,02,5.10
2017,10,23,07,03,5.10
2017,10,23,07,04,5.10
2017,10,23,07,05,5.10
2017,10,23,07,06,5.10
2017,10,23,07,07,5.10
2017,10,23,07,08,5.10
2017,10,23,07,09,5.10
2017,10,23,07,10,5.10
2017,10,23,07,11,5.10
2017,10,23,07,12,5.10
2017,10,23,07,13,5.10
2017,10,23,07,14,5.10
2017,10,23,07,15,5.10
2017,10,23,07,16,5.10
2017,10,23,07,17,5.10
2017,10,23,07,18,5.10
2017,10,23,07,19,5.10
2017,10,23,07,20,5.10
2017,10,23,07,21,5.10
2017,10,23,07,22,5.10
2017,10,23,07,23,5.20
2017,10,23,07,24,5.20
2017,10,23,07,25,5.20
2017,10,23,07,26,5.20
2017,10,23,07,27,5.10
2017,10,23,07,28,5.10
2017,10,23,07,29,5.10
2017,10,23,07,30,5.10
2017,10,23,07,31,5.10
2017,10,23,07,32,5.10
2017,10,23,07,33,5.10
2017,10,23,07,34,5.20
2017,10,23,07,35,5.20
2017,10,23,07,36,5.20
2017,10,23,07,37,5.20
2017,10,23,07,38,5.20
2017,10,23,07,39,5.20
2017,10,23,07,40,5.20
2017,10,23,07,41,5.20
2017,10,23,07,42,5.20
2017,10,23,07,43,5.20
2017,10,23,07,44,5.20
2017,10,23,07,45,5.20
2017,10,23,07,46,5.20
2017,10,23,07,47,5.20
2017,10,23,07,48,5.20
2017,10,23,07,49,5.20
2017,10,23,07,50,5.20
2017,10,23,07,51,5.20
2017,10,23,07,52,5.20
2017,10,23,07,53,5.30
2017,10,23,07,54,5.30
2017,10,23,07,55,5.30
2017,10,23,07,56,5.30
2017,10,23,07,57,5.30
2017,10,23,07,58,5.30
2017,10,23,07,59,5.30
2017,10,23,08,00,5.30
2017,10,23,08,01,5.30
2017,10,23,08,02,5.30
2017,10,23,08,03,5.40
2017,10,23,08,04,5.40
2017,10,23,08,05,5.40
2017,10,23,08,06,5.40
2017,10,23,08,07,5.40
2017,10,23,08,08,5.40
2017,10,23,08,09,5.40
2017,10,23,08,10,5.40
2017,10,23,08,11,5.40
2017,10,23,08,12,5.40
2017,10,23,08,13,5.50
2017,10,23,08,14,5.50
2017,10,23,08,15,5.60
2017,10,23,08,16,5.60
2017,10,23,08,17,5.60
2017,10,23,08,18,5.70
2017,10,23,08,19,5.70
2017,10,23,08,20,5.70
2017,10,23,08,21,5.70
2017,10,23,08,22,5.80
2017,10,23,08,23,5.80
2017,10,23,08,24,5.80
2017,10,23,08,25,5.80
2017,10,23,08,26,5.80
2017,10,23,08,27,5.80
2017,10,23,08,28,5.80
2017,10,23,08,29,5.80
2017,10,23,08,30,5.80
2017,10,23,08,31,5.80
2017,10,23,08,32,5.80
2017,10,23,08,33,5.80
2017,10,23,08,34,5.80
2017,10,23,08,35,5.80
2017,10,23,08,36,5.80
2017,10,23,08,37,5.80
2017,10,23,08,38,5.80
2017,10,23,08,39,5.80
2017,10,23,08,40,5.90
2017,10,23,08,41,5.90
2017,10,23,08,42,5.90
2017,10,23,08,43,5.90
2017,10,23,08,44,5.90
2017,10,23,08,45,5.90
2017,10,23,08,46,5.90
2017,10,23,08,47,6.00
2017,10,23,08,48,6.00
2017,10,23,08,49,6.10
2017,10,23,08,50,6.10
2017,10,23,08,51,6.10
2017,10,23,08,52,6.20
2017,10,23,08,53,6.30
2017,10,23,08,54,6.30
2017,10,23,08,55,6.40
2017,10,23,08,56,6.40
2017,10,23,08,57,6.50
2017,10,23,08,58,6.50
2017,10,23,08,59,6.60
2017,10,23,09,00,6.60
2017,10,23,09,01,6.60
2017,10,23,09,02,6.70
2017,10,23,09,03,6.70
2017,10,23,09,04,6.80
2017,10,23,09,05,6.80
2017,10,23,09,06,6.80
2017,10,23,09,07,6.80
2017,10,23,09,08,6.80
2017,10,23,09,09,6.80
2017,10,23,09,10,6.80
2017,10,23,09,11,6.80
2017,10,23,09,12,6.90
2017,10,23,09,13,6.90
2017,10,23,09,14,6.90
2017,10,23,09,15,6.90
2017,10,23,09,16,6.90
2017,10,23,09,17,6.90
2017,10,23,09,18,6.90
2017,10,23,09,19,6.90
2017,10,23,09,20,6.90
2017,10,23,09,21,6.90
2017,10,23,09,22,6.90
2017,10,23,09,23,6.90
2017,10,23,09,24,6.90
2017,10,23,09,25,6.90
2017,10,23,09,26,6.90
2017,10,23,09,27,6.90
2017,10,23,09,28,6.90
2017,10,23,09,29,6.90
2017,10,23,09,30,6.80
2017,10,23,09,31,6.80
2017,10,23,09,32,6.80
2017,10,23,09,33,6.80
2017,10,23,09,34,6.90
2017,10,23,09,35,6.90
2017,10,23,09,36,6.90
2017,10,23,09,37,6.90
2017,10,23,09,38,6.90
2017,10,23,09,39,7.00
2017,10,23,09,40,7.00
2017,10,23,09,41,7.00
2017,10,23,09,42,7.10
2017,10,23,09,43,7.10
2017,10,23,09,44,7.20
2017,10,23,09,45,7.20
2017,10,23,09,46,7.30
2017,10,23,09,47,7.30
2017,10,23,09,48,7.40
2017,10,23,09,49,7.40
2017,10,23,09,50,7.50
2017,10,23,09,51,7.50
2017,10,23,09,52,7.60
2017,10,23,09,53,7.60
2017,10,23,09,54,7.60
2017,10,23,09,55,7.60
2017,10,23,09,56,7.70
2017,10,23,09,57,7.70
2017,10,23,09,58,7.80
2017,10,23,09,59,7.80
2017,10,23,10,00,7.80
2017,10,23,10,01,7.90
2017,10,23,10,02,7.90
2017,10,23,10,03,8.00
2017,10,23,10,04,8.00
2017,10,23,10,05,8.00
2017,10,23,10,06,8.00
2017,10,23,10,07,8.00
2017,10,23,10,08,8.10
2017,10,23,10,09,8.10
2017,10,23,10,10,8.10
2017,10,23,10,11,8.10
2017,10,23,10,12,8.10
2017,10,23,10,13,8.10
2017,10,23,10,14,8.10
2017,10,23,10,15,8.20
2017,10,23,10,16,8.20
2017,10,23,10,17,8.20
2017,10,23,10,18,8.20
2017,10,23,10,19,8.20
2017,10,23,10,20,8.20
2017,10,23,10,21,8.20
2017,10,23,10,22,8.20
2017,10,23,10,23,8.20
2017,10,23,10,24,8.20
2017,10,23,10,25,8.20
2017,10,23,10,26,8.20
2017,10,23,10,27,8.20
2017,10,23,10,28,8.20
2017,10,23,10,29,8.20
2017,10,23,10,30,8.20
2017,10,23,10,31,8.30
2017,10,23,10,32,8.30
2017,10,23,10,33,8.30
2017,10,23,10,34,8.30
2017,10,23,10,35,8.40
2017,10,23,10,36,8.40
2017,10,23,10,37,8.40
2017,10,23,10,38,8.50
2017,10,23,10,39,8.50
2017,10,23,10,40,8.60
2017,10,23,10,41,8.60
2017,10,23,10,42,8.60
2017,10,23,10,43,8.60
2017,10,23,10,44,8.70
2017,10,23,10,45,8.70
2017,10,23,10,46,8.70
2017,10,23,10,47,8.80
2017,10,23,10,48,8.80
2017,10,23,10,49,8.80
2017,10,23,10,50,8.80
2017,10,23,10,51,8.90
2017,10,23,10,52,8.90
2017,10,23,10,53,8.90
2017,10,23,10,54,8.90
2017,10,23,10,55,9.00
2017,10,23,10,56,9.00
2017,10,23,10,57,9.00
2017,10,23,10,58,9.10
2017,10,23,10,59,9.10
2017,10,23,11,00,9.10
2017,10,23,11,01,9.20
2017,10,23,11,02,9.20
2017,10,23,11,03,9.20
2017,10,23,11,04,9.20
2017,10,23,11,05,9.20
2017,10,23,11,06,9.20
2017,10,23,11,07,9.30
2017,10,23,11,08,9.30
2017,10,23,11,09,9.30
2017,10,23,11,10,9.30
2017,10,23,11,11,9.30
2017,10,23,11,12,9.30
2017,10,23,11,13,9.30
2017,10,23,11,14,9.30
2017,10,23,11,15,9.40
2017,10,23,11,16,9.40
2017,10,23,11,17,9.40
2017,10,23,11,18,9.40
2017,10,23,11,19,9.40
2017,10,23,11,20,9.40
2017,10,23,11,21,9.40
2017,10,23,11,22,9.50
2017,10,23,11,23,9.40
2017,10,23,11,24,9.40
2017,10,23,11,25,9.40
2017,10,23,11,26,9.40
2017,10,23,11,27,9.40
2017,10,23,11,28,9.50
2017,10,23,11,29,9.50
2017,10,23,11,30,9.50
2017,10,23,11,31,9.50
2017,10,23,11,32,9.50
2017,10,23,11,33,9.50
2017,10,23,11,34,9.50
2017,10,23,11,35,9.50
2017,10,23,11,36,9.50
2017,10,23,11,37,9.60
2017,10,23,11,38,9.60
2017,10,23,11,39,9.60
2017,10,23,11,40,9.60
2017,10,23,11,41,9.60
2017,10,23,11,42,9.70
2017,10,23,11,43,9.70
2017,10,23,11,44,9.70
2017,10,23,11,45,9.70
2017,10,23,11,46,9.70
2017,10,23,11,47,9.70
2017,10,23,11,48,9.70
2017,10,23,11,49,9.70
2017,10,23,11,50,9.80
2017,10,23,11,51,9.80
2017,10,23,11,52,9.80
2017,10,23,11,53,9.80
2017,10,23,11,54,9.80
2017,10,23,11,55,9.80
2017,10,23,11,56,9.80
2017,10,23,11,57,9.80
2017,10,23,11,58,9.90
2017,10,23,11,59,9.90
2017,10,23,12,00,10.00
2017,10,23,12,01,10.00
2017,10,23,12,02,10.00
2017,10,23,12,03,10.10
2017,10,23,12,04,10.10
2017,10,23,12,05,10.10
2017,10,23,12,06,10.10
2017,10,23,12,07,10.20
2017,10,23,12,08,10.20
2017,10,23,12,09,10.20
2017,10,23,12,10,10.20
2017,10,23,12,11,10.20
2017,10,23,12,12,10.30
2017,10,23,12,13,10.30
2017,10,23,12,14,10.30
2017,10,23,12,15,10.30
2017,10,23,12,16,10.30
2017,10,23,12,17,10.30
2017,10,23,12,18,10.30
2017,10,23,12,19,10.30
2017,10,23,12,20,10.40
2017,10,23,12,21,10.40
2017,10,23,12,22,10.40
2017,10,23,12,23,10.40
2017,10,23,12,24,10.40
2017,10,23,12,25,10.40
2017,10,23,12,26,10.40
2017,10,23,12,27,10.40
2017,10,23,12,28,10.40
2017,10,23,12,29,10.40
2017,10,23,12,30,10.40
2017,10,23,12,31,10.40
2017,10,23,12,32,10.40
2017,10,23,12,33,10.40
2017,10,23,12,34,10.40
2017,10,23,12,35,10.40
2017,10,23,12,36,10.40
2017,10,23,12,37,10.50
2017,10,23,12,38,10.50
2017,10,23,12,39,10.50
2017,10,23,12,40,10.50
2017,10,23,12,41,10.50
2017,10,23,12,42,10.50
2017,10,23,12,43,10.50
2017,10,23,12,44,10.50
2017,10,23,12,45,10.50
2017,10,23,12,46,10.60
2017,10,23,12,47,10.60
2017,10,23,12,48,10.60
2017,10,23,12,49,10.60
2017,10,23,12,50,10.60
2017,10,23,12,51,10.70
2017,10,23,12,52,10.70
2017,10,23,12,53,10.70
2017,10,23,12,54,10.70
2017,10,23,12,55,10.70
2017,10,23,12,56,10.70
2017,10,23,12,57,10.80
2017,10,23,12,58,10.80
2017,10,23,12,59,10.80
2017,10,23,13,00,10.80
2017,10,23,13,01,10.80
2017,10,23,13,02,10.80
2017,10,23,13,03,10.80
2017,10,23,13,04,10.80
2017,10,23,13,05,10.90
2017,10,23,13,06,10.90
2017,10,23,13,07,10.90
2017,10,23,13,08,10.90
2017,10,23,13,09,11.00
2017,10,23,13,10,11.00
2017,10,23,13,11,10.90
2017,10,23,13,12,11.00
2017,10,23,13,13,11.00
2017,10,23,13,14,11.00
2017,10,23,13,15,11.00
2017,10,23,13,16,11.00
2017,10,23,13,17,11.10
2017,10,23,13,18,11.10
2017,10,23,13,19,11.10
2017,10,23,13,20,11.10
2017,10,23,13,21,11.10
2017,10,23,13,22,11.10
2017,10,23,13,23,11.10
2017,10,23,13,24,11.10
2017,10,23,13,25,11.10
2017,10,23,13,26,11.10
2017,10,23,13,27,11.10
2017,10,23,13,28,11.10
2017,10,23,13,29,11.10
2017,10,23,13,30,11.10
2017,10,23,13,31,11.10
2017,10,23,13,32,11.10
2017,10,23,13,33,11.10
2017,10,23,13,34,11.10
2017,10,23,13,35,11.10
2017,10,23,13,36,11.10
2017,10,23,13,37,11.10
2017,10,23,13,38,11.10
2017,10,23,13,39,11.10
2017,10,23,13,40,11.10
2017,10,23,13,41,11.10
2017,10,23,13,42,11.10
2017,10,23,13,43,11.10
2017,10,23,13,44,11.10
2017,10,23,13,45,11.10
2017,10,23,13,46,11.10
2017,10,23,13,47,11.10
2017,10,23,13,48,11.20
2017,10,23,13,49,11.20
2017,10,23,13,50,11.20
2017,10,23,13,51,11.20
2017,10,23,13,52,11.20
2017,10,23,13,53,11.20
2017,10,23,13,54,11.20
2017,10,23,13,55,11.20
2017,10,23,13,56,11.20
2017,10,23,13,57,11.20
2017,10,23,13,58,11.20
2017,10,23,13,59,11.20
2017,10,23,14,00,11.30
2017,10,23,14,01,11.30
2017,10,23,14,02,11.30
2017,10,23,14,03,11.30
2017,10,23,14,04,11.30
2017,10,23,14,05,11.40
2017,10,23,14,06,11.40
2017,10,23,14,07,11.40
2017,10,23,14,08,11.40
2017,10,23,14,09,11.40
2017,10,23,14,10,11.40
2017,10,23,14,11,11.40
2017,10,23,14,12,11.40
2017,10,23,14,13,11.40
2017,10,23,14,14,11.40
2017,10,23,14,15,11.40
2017,10,23,14,16,11.40
2017,10,23,14,17,11.40
2017,10,23,14,18,11.40
2017,10,23,14,19,11.40
2017,10,23,14,20,11.40
2017,10,23,14,21,11.50
2017,10,23,14,22,11.50
2017,10,23,14,23,11.50
2017,10,23,14,24,11.50
2017,10,23,14,25,11.50
2017,10,23,14,26,11.50
2017,10,23,14,27,11.50
2017,10,23,14,28,11.50
2017,10,23,14,29,11.50
2017,10,23,14,30,11.50
2017,10,23,14,31,11.50
2017,10,23,14,32,11.50
2017,10,23,14,33,11.50
2017,10,23,14,34,11.50
2017,10,23,14,35,11.60
2017,10,23,14,36,11.60
2017,10,23,14,37,11.60
2017,10,23,14,38,11.60
2017,10,23,14,39,11.60
2017,10,23,14,40,11.60
2017,10,23,14,41,11.60
2017,10,23,14,42,11.60
2017,10,23,14,43,11.60
2017,10,23,14,44,11.60
2017,10,23,14,45,11.60
2017,10,23,14,46,11.60
2017,10,23,14,47,11.60
2017,10,23,14,48,11.60
2017,10,23,14,49,11.60
2017,10,23,14,50,11.60
2017,10,23,14,51,11.60
2017,10,23,14,52,11.60
2017,10,23,14,53,11.60
2017,10,23,14,54,11.60
2017,10,23,14,55,11.60
2017,10,23,14,56,11.60
2017,10,23,14,57,11.60
2017,10,23,14,58,11.60
2017,10,23,14,59,11.60
2017,10,23,15,00,11.60
2017,10,23,15,01,11.60
2017,10,23,15,02,11.50
2017,10,23,15,03,11.50
2017,10,23,15,04,11.50
2017,10,23,15,05,11.50
2017,10,23,15,06,11.50
2017,10,23,15,07,11.50
2017,10,23,15,08,11.50
2017,10,23,15,09,11.50
2017,10,23,15,10,11.50
2017,10,23,15,11,11.60
2017,10,23,15,12,11.60
2017,10,23,15,13,11.60
2017,10,23,15,14,11.60
2017,10,23,15,15,11.60
2017,10,23,15,16,11.60
2017,10,23,15,17,11.60
2017,10,23,15,18,11.60
2017,10,23,15,19,11.60
2017,10,23,15,20,11.60
2017,10,23,15,21,11.60
2017,10,23,15,22,11.60
2017,10,23,15,23,11.60
2017,10,23,15,24,11.60
2017,10,23,15,25,11.60
2017,10,23,15,26,11.60
2017,10,23,15,27,11.60
2017,10,23,15,28,11.60
2017,10,23,15,29,11.60
2017,10,23,15,30,11.60
2017,10,23,15,31,11.60
2017,10,23,15,32,11.60
2017,10,23,15,33,11.60
2017,10,23,15,34,11.60
2017,10,23,15,35,11.60
2017,10,23,15,36,11.60
2017,10,23,15,37,11.60
2017,10,23,15,38,11.60
2017,10,23,15,39,11.60
2017,10,23,15,40,11.60
2017,10,23,15,41,11.60
2017,10,23,15,42,11.60
2017,10,23,15,43,11.60
2017,10,23,15,44,11.60
2017,10,23,15,45,11.60
2017,10,23,15,46,11.60
2017,10,23,15,47,11.60
2017,10,23,15,48,11.60
2017,10,23,15,49,11.60
2017,10,23,15,50,11.60
2017,10,23,15,51,11.60
2017,10,23,15,52,11.60
2017,10,23,15,53,11.60
2017,10,23,15,54,11.60
2017,10,23,15,55,11.60
2017,10,23,15,56,11.60
2017,10,23,15,57,11.60
2017,10,23,15,58,11.60
2017,10,23,15,59,11.60
2017,10,23,16,00,11.60
2017,10,23,16,01,11.60
2017,10,23,16,02,11.60
2017,10,23,16,03,11.60
2017,10,23,16,04,11.60
2017,10,23,16,05,11.60
2017,10,23,16,06,11.60
2017,10,23,16,07,11.60
2017,10,23,16,08,11.60
2017,10,23,16,09,11.60
2017,10,23,16,10,11.60
2017,10,23,16,11,11.60
2017,10,23,16,12,11.60
2017,10,23,16,13,11.60
2017,10,23,16,14,11.60
2017,10,23,16,15,11.60
2017,10,23,16,16,11.60
2017,10,23,16,17,11.60
2017,10,23,16,18,11.50
2017,10,23,16,19,11.50
2017,10,23,16,20,11.50
2017,10,23,16,21,11.50
2017,10,23,16,22,11.50
2017,10,23,16,23,11.50
2017,10,23,16,24,11.50
2017,10,23,16,25,11.50
2017,10,23,16,26,11.50
2017,10,23,16,27,11.50
2017,10,23,16,28,11.50
2017,10,23,16,29,11.50
2017,10,23,16,30,11.50
2017,10,23,16,31,11.50
2017,10,23,16,32,11.50
2017,10,23,16,33,11.50
2017,10,23,16,34,11.50
2017,10,23,16,35,11.50
2017,10,23,16,36,11.50
2017,10,23,16,37,11.50
2017,10,23,16,38,11.40
2017,10,23,16,39,11.40
2017,10,23,16,40,11.40
2017,10,23,16,41,11.40
2017,10,23,16,42,11.40
2017,10,23,16,43,11.50
2017,10,23,16,44,11.50
2017,10,23,16,45,11.50
2017,10,23,16,46,11.50
2017,10,23,16,47,11.50
2017,10,23,16,48,11.50
2017,10,23,16,49,11.50
2017,10,23,16,50,11.50
2017,10,23,16,51,11.40
2017,10,23,16,52,11.40
2017,10,23,16,53,11.50
2017,10,23,16,54,11.50
2017,10,23,16,55,11.50
2017,10,23,16,56,11.50
2017,10,23,16,57,11.50
2017,10,23,16,58,11.50
2017,10,23,16,59,11.50
2017,10,23,17,00,11.50
2017,10,23,17,01,11.50
2017,10,23,17,02,11.50
2017,10,23,17,03,11.50
2017,10,23,17,04,11.50
2017,10,23,17,05,11.50
2017,10,23,17,06,11.50
2017,10,23,17,07,11.50
2017,10,23,17,08,11.50
2017,10,23,17,09,11.50
2017,10,23,17,10,11.50
2017,10,23,17,11,11.50
2017,10,23,17,12,11.40
2017,10,23,17,13,11.40
2017,10,23,17,14,11.40
2017,10,23,17,15,11.40
2017,10,23,17,16,11.40
2017,10,23,17,17,11.40
2017,10,23,17,18,11.40
2017,10,23,17,19,11.40
2017,10,23,17,20,11.40
2017,10,23,17,21,11.40
2017,10,23,17,22,11.40
2017,10,23,17,23,11.40
2017,10,23,17,24,11.40
2017,10,23,17,25,11.40
2017,10,23,17,26,11.40
2017,10,23,17,27,11.40
2017,10,23,17,28,11.40
2017,10,23,17,29,11.40
2017,10,23,17,30,11.40
2017,10,23,17,31,11.40
2017,10,23,17,32,11.40
2017,10,23,17,33,11.40
2017,10,23,17,34,11.40
2017,10,23,17,35,11.40
2017,10,23,17,36,11.40
2017,10,23,17,37,11.40
2017,10,23,17,38,11.40
2017,10,23,17,39,11.40
2017,10,23,17,40,11.40
2017,10,23,17,41,11.40
2017,10,23,17,42,11.40
2017,10,23,17,43,11.40
2017,10,23,17,44,11.40
2017,10,23,17,45,11.40
2017,10,23,17,46,11.40
2017,10,23,17,47,11.30
2017,10,23,17,48,11.30
2017,10,23,17,49,11.30
2017,10,23,17,50,11.30